Volver al catálogo

STARLINK-36695

ActivoComunicacionesSSO
NORAD 67702·PAYLOAD·🇺🇸 United States

Lanzado Feb 7, 2026 desde Vandenberg Space Force Base

Loading…

Próximos Pases (próximas 24 horas)

TLE

ActualizadoSource: CelesTrak SupGP

Época: Sep 15, 2026, 04:11 UTC

1 67702C 26025K   26258.17479167 -.00004754  00000+0 -14756-3 0  2587
2 67702  97.2858   8.2032 0001046  71.2171 269.5902 15.33443242    13

Sigue STARLINK-36695 en tiempo real con AllMySat

Download on the App Store